Location: ČR
(50.0000°N, 15.0000°E)
Time: 22:23:40
(UTC+01:00)

BlueWalker 3 - Pass Details

Date: 05 December 2023
Orbit: 486 x 500 km, 53.2° (Epoch: 20 February)

Event Time Altitude Azimuth Distance (km) Brightness Sun altitude
Exits shadow 05:28:46 18° 202° (SSW) 1,287 3.9 -20.3°
Drops below altitude 10° 05:30:31 10° 176° (S) 1,691 4.8 -20.0°
Sets 05:33:05 0° 159° (SSE) 2,564 6.0 -19.6°
